This demonstration page uses our WeatherBlox Daily Observations layout. Learn more.

Left ArrowRight Arrow

39.95238, -75.16362

Hourly Observations for August 6, 2016

Temp ( °F °C ) Dew Point ( °F °C ) Humidity (%) Winds ( mph kmh ) Pressure ( in mb ) Visibility ( mi km ) Precip ( " mm )
12:54 am 00:54 Cloudy 76 24.4 67 19.4 74 74 SSW 8 13 29.89 1012 10 16 0.00 0.00
1:54 am 01:54 Cloudy 76 24.4 68 20 77 77 SSW 7 11 29.86 1011 10 16 0.00 0.00
2:25 am 02:25 Cloudy 76 24.4 69 20.6 79 79 SSW 10 17 29.85 1011 10 16 0.00 0.00
2:54 am 02:54 Cloudy 76 24.4 69 20.6 79 79 SSW 10 17 29.85 1011 10 16 0.00 0.00
3:13 am 03:13 Cloudy 76 24.4 70 21.1 82 82 SSW 9 15 29.85 1011 10 16 0.00 0.00
3:54 am 03:54 Cloudy 76 24.4 71 21.7 85 85 SSW 7 11 29.84 1011 10 16 0.00 0.00
4:37 am 04:37 Cloudy 76 24.4 71 21.7 85 85 SSW 9 15 29.83 1010 10 16 0.00 0.00
4:54 am 04:54 Cloudy 76 24.4 71 21.7 85 85 SSW 8 13 29.82 1010 10 16 0.00 0.00
5:48 am 05:48 Cloudy 75 24 72 22 89 89 SW 7 11 29.83 1010 10 16 0.00 0.00
5:54 am 05:54 Cloudy 77 25 72 22.2 85 85 SW 8 13 29.82 1010 10 16 0.00 0.00
6:29 am 06:29 Cloudy 76 24.4 72 22.2 88 88 SSW 7 11 29.83 1010 10 16 0.00 0.00
6:44 am 06:44 Cloudy 75 24 73 23 94 94 SSW 9 15 29.83 1010 10 16 0.00 0.00
6:50 am 06:50 Cloudy 75 24 73 23 94 94 SSW 9 15 29.83 1010 10 16 0.00 0.00
6:54 am 06:54 Cloudy 76 24.4 73 22.8 91 91 SSW 12 19 29.82 1010 10 16 0.00 0.00
7:54 am 07:54 Cloudy 77 25 73 22.8 88 88 WSW 9 15 29.82 1010 10 16 0.00 0.00
8:38 am 08:38 Cloudy 79 26 73 23 84 84 WSW 9 15 29.80 1009 10 16 0.00 0.00
8:54 am 08:54 Mostly Cloudy 79 26.1 74 23.3 85 85 SW 9 15 29.80 1009 10 16 0.00 0.00
8:58 am 08:58 Mostly Cloudy 80 26.7 74 23.3 82 82 SW 8 13 29.80 1009 10 16 0.00 0.00
9:54 am 09:54 Mostly Cloudy 81 27.2 73 22.8 77 77 SSW 8 13 29.79 1009 10 16 0.00 0.00
10:54 am 10:54 Mostly Cloudy 84 28.9 73 22.8 70 70 SW 9 15 29.78 1009 10 16 0.00 0.00
11:54 am 11:54 Cloudy 84 28.9 73 22.8 70 70 SW 9 15 29.78 1009 10 16 0.00 0.00
12:54 pm 12:54 Mostly Cloudy 86 30 74 23.3 67 67 SW 9 15 29.76 1008 10 16 0.00 0.00
1:54 pm 13:54 Mostly Cloudy 88 31.1 73 22.8 61 61 WSW 9 15 29.75 1008 10 16 0.00 0.00
2:54 pm 14:54 Mostly Cloudy 89 31.7 71 21.7 55 55 SW 13 20 29.73 1007 10 16 0.00 0.00
3:54 pm 15:54 Partly Cloudy 90 32.2 72 22.2 56 56 W 9 15 29.71 1006 10 16 0.00 0.00
4:54 pm 16:54 Partly Cloudy 90 32.2 72 22.2 56 56 W 12 19 29.70 1006 10 16 0.00 0.00
5:54 pm 17:54 Mostly Cloudy 89 31.7 73 22.8 59 59 SW 10 17 29.70 1006 10 16 0.00 0.00
6:54 pm 18:54 Mostly Cloudy 89 31.7 74 23.3 61 61 SW 13 20 29.72 1006 10 16 0.00 0.00
7:54 pm 19:54 Mostly Cloudy 85 29.4 72 22.2 65 65 NNW 10 17 29.72 1007 10 16 0.00 0.00
8:54 pm 20:54 Mostly Cloudy 83 28.3 72 22.2 70 70 SSW 3 6 29.75 1007 10 16 0.00 0.00
9:54 pm 21:54 Mostly Cloudy 83 28.3 70 21.1 65 65 N 3 6 29.77 1008 10 16 0.00 0.00
10:54 pm 22:54 Mostly Cloudy 81 27.2 70 21.1 69 69 N 10 17 29.78 1009 10 16 0.00 0.00
11:54 pm 23:54 Mostly Clear 80 26.7 69 20.6 69 69 N 12 19 29.80 1009 10 16 0.00 0.00

Powered by AerisWeather